Regional Weather Roundup
Issued by NWS

Home | Current Version | Previous Version | Text Only | Print | Product List | Glossary Off
Versions: 1 2 3 4 5 6 7 8 9 10 11 12 13 14 15 16 17 18 19 20 21 22 23 24 25 26 27 28 29 30 31 32 33 34 35 36 37 38 39 40 41 42 43 44 45 46 47 48 49 50

038
ASUS43 KLOT 180103
RWRIL

ILLINOIS REGIONAL WEATHER ROUNDUP
NATIONAL WEATHER SERVICE CHICAGO/ROMEOVILLE IL
700 PM CST TUE JAN 17 2017

NOTE: "FAIR" INDICATES FEW OR NO CLOUDS BELOW 12,000 FEET WITH NO
SIGNIFICANT WEATHER AND/OR OBSTRUCTIONS TO VISIBILITY.

* THESE STATIONS ARE NOT UNDER NWS QUALITY CONTROL. THEY ALSO MAY NOT
  REPORT WEATHER SUCH AS PRECIPITATION OR FOG.

ILZ001-002-007-009-015-016-024-180200-
NORTHWEST ILLINOIS

CITY           SKY/WX    TMP DP  RH WIND       PRES   REMARKS
MOLINE         CLOUDY    35  33  92 W10       30.04R FOG     WCI  27
STERLING*      CLOUDY    34  33  96 W14       30.02R FOG     WCI  25
SAVANNA*       CLOUDY    35  32  90 W6        30.01S FOG     WCI  30
$$

ILZ003-004-008-010-011-017-018-180200-
NORTH CENTRAL ILLINOIS

CITY           SKY/WX    TMP DP  RH WIND       PRES   REMARKS
ROCKFORD       DRIZZLE   35  33  92 W9        30.00R FOG     WCI  28
FREEPORT*      CLOUDY    33  33 100 W7        30.00R FOG     WCI  27
ROCHELLE*      CLOUDY    34  33  98 W12       30.01R FOG     WCI  25
DE KALB*       CLOUDY    34  34  99 W10       29.99R FOG     WCI  26
$$

ILZ005-006-012>014-019>023-180200-
NORTHEAST ILLINOIS

CITY           SKY/WX    TMP DP  RH WIND       PRES   REMARKS
CHICAGO-OHARE  CLOUDY    35  34  96 W14       29.96R WCI  26
CHICAGO-MIDWAY DRIZZLE   34  34 100 W7        29.98R FOG     WCI  28
AURORA         CLOUDY    36  34  92 W14       29.99R FOG     WCI  27
LANSING*       CLOUDY    36  36 100 W14       29.99R FOG     WCI  27
JOLIET*        CLOUDY    36  36  99 W8        30.01R FOG     WCI  30
WAUKEGAN       CLOUDY    35  34  96 VRB5      29.94R FOG     WCI  31
DUPAGE AIRPORT CLOUDY    35  33  92 W10       29.97R FOG     WCI  27
KANKAKEE*      CLOUDY    35  35  98 W13       30.03R FOG     WCI  27
WHEELING       CLOUDY    36  34  92 W8        29.97R WCI  30
MORRIS*        CLOUDY    35  34  97 W14       30.00S FOG     WCI  25
ROMEOVILLE*    DRIZZLE   34  34 100 W12       29.99S WCI  26
NORTHERLY ISL    N/A     36  34  92 SW7         N/A  WCI  30
$$

LMZ740>746-180200-
SOUTHERN LAKE MICHIGAN

STATION/POSITION SKY/WX   TEMP    WIND        PRES    VSBY  WAVE
                          AIR SEA DIR/SP/G                  HT/PER
                          (F)     (DEG/KT/KT) (MB)    (MI)  (FT/S)
HARRISON CRIB              37     260/ 16/ 17   N/A
BURNHAM HARBOR             36     250/  8/ 13   N/A
CALUMET HARBOR             36     240/  7/ 15 1014.4R
BURNS HARBOR               36     250/ 15/ 18 1015.6R
$$

ILZ025>027-034>036-040-047-049-050-058-095>099-180200-
WEST-CENTRAL ILLINOIS

CITY           SKY/WX    TMP DP  RH WIND       PRES   REMARKS
QUINCY         CLOUDY    37  35  92 W7        30.12R FOG     WCI  32
GALESBURG*     CLOUDY    34  34  99 W10       30.07S FOG     WCI  26
MACOMB*        CLOUDY    36  36 100 W12       30.10S WCI  27
JACKSONVILLE*  CLOUDY    38  34  88 W13       30.12R WCI  30
PITTSFIELD*    CLOUDY    38  37  93 W12       30.14R WCI  31
$$

ILZ028>032-037-038-041>044-048-051>054-059>061-180200-
CENTRAL ILLINOIS

CITY           SKY/WX    TMP DP  RH WIND       PRES   REMARKS
BLOOMINGTON    CLOUDY    35  33  92 W13       30.06R WCI  26
DECATUR        CLOUDY    38  37  97 W13G18    30.10R WCI  30
PEORIA         CLOUDY    36  35  96 W7        30.07S FOG     WCI  30
LACON*         CLOUDY    35  34  98 W9        30.05S FOG     WCI  27
LINCOLN*       DRIZZLE   37  37  98 W8        30.10R WCI  31
SPRINGFIELD    CLOUDY    39  35  86 W14       30.12R WCI  31
TAYLORVILLE    CLOUDY    38  37  93 W10       30.11R WCI  31
$$

ILZ033-039-045-046-055>057-062-063-180200-
EAST-CENTRAL ILLINOIS

CITY           SKY/WX    TMP DP  RH WIND       PRES   REMARKS
CHAMPAIGN      CLOUDY    38  35  89 W14       30.08R WCI  30
RANTOUL*       CLOUDY    38  37  95 W12G18    30.06R WCI  30
MATTOON        CLOUDY    39  32  76 W16       30.08R WCI  30
PARIS*         CLOUDY    40  38  96 W15       30.08R
$$

ILZ079-100>102-180200-
SOUTHWEST ILLINOIS

CITY           SKY/WX    TMP DP  RH WIND       PRES   REMARKS
BELLEVILLE     MOCLDY    42  40  89 W10       30.13R
CAHOKIA*       CLOUDY    43  36  76 W12       30.15R
SPARTA*        CLOUDY    43  38  82 W7        30.15R
$$

ILZ064>066-069>071-074>076-080>082-084>086-088>090-092>094-180200-
SOUTH-CENTRAL ILLINOIS

CITY           SKY/WX    TMP DP  RH WIND       PRES   REMARKS
CARBONDALE     CLOUDY    44  41  89 W7        30.14R
CAIRO*         CLOUDY    44  40  85 W6        30.17R
EFFINGHAM*     CLOUDY    42  40  94 W14       30.12R
MARION         CLOUDY    45  43  93 SW3       30.15R
MT. VERNON     CLOUDY    44  40  85 W6        30.13R
CENTRALIA*     CLOUDY    44  40  87 W9        30.12R
SALEM*         CLOUDY    44  39  83 W9        30.12R
METROPOLIS*    CLOUDY    45  39  81 W8        30.16R
$$

ILZ067-068-072-073-078-083-087-091-180200-
SOUTHEAST ILLINOIS

CITY           SKY/WX    TMP DP  RH WIND       PRES   REMARKS
LAWRENCEVILLE  LGT RAIN  44  41  89 W12       30.10R
FLORA*         CLOUDY    45  39  82 W10       30.12R
FAIRFIELD*     CLOUDY    43  40  89 SW7       30.12R FOG
HARRISBURG*    CLOUDY    44  40  88 W7        30.15R
ROBINSON*      CLOUDY    43  40  90 W12       30.10R
CARMI*         CLOUDY    43  41  93 W8        30.13R
$$

ABBREVIATIONS USED IN REMARKS
   TC - TEMPERATURE IN CELSIUS
  WCI - WIND CHILL INDEX
   HX - HEAT INDEX
  VSB - VISIBILITY
$$





USA.gov is the U.S. government's official web portal to all federal, state and local government web resources and services.